EW2055 Weather Reports


Display with metric or nautical units.
time (UTC)temp
F
wind
direction
speed
MPH
gust
MPH
rain 1hr
in
rain 24hr
in
rain mn
in
humidity
%
barometer
mb
20260506001045 75 330 5.0 8.0 0.00 0.00 0.00 26 1009.3
20260506000042 76 331 4.0 8.0 0.00 0.00 0.00 26 1009.3
20260505235039 76 350 4.0 7.0 0.00 0.00 0.00 26 1009.3
20260505234035 76 350 3.0 7.0 0.00 0.00 0.00 26 1009.2
20260505233031 77 338 3.0 4.0 0.00 0.00 0.00 26 1009.2
20260505232028 77 356 4.0 8.0 0.00 0.00 0.00 24 1009.3
20260505231025 77 356 3.0 8.0 0.00 0.00 0.00 23 1009.2
20260505230041 77 9 2.0 4.0 0.00 0.00 0.00 23 1009.2
20260505225018 78 354 4.0 6.0 0.00 0.00 0.00 22 1009.1
20260505224135 78 331 5.0 10.0 0.00 0.00 0.00 23 1009.1
20260505223111 78 329 5.0 8.0 0.00 0.00 0.00 23 1009.0
20260505222108 78 350 4.0 7.0 0.00 0.00 0.00 23 1009.1
20260505221125 79 307 3.0 6.0 0.00 0.00 0.00 23 1009.0
20260505215116 79 299 3.0 7.0 0.00 0.00 0.00 24 1009.1
20260505214053 79 7 4.0 7.0 0.00 0.00 0.00 25 1009.2
20260505213050 79 351 3.0 4.0 0.00 0.00 0.00 25 1009.1
20260505212047 80 25 4.0 7.0 0.00 0.00 0.00 26 1009.2
20260505211043 79 311 2.0 5.0 0.00 0.00 0.00 27 1009.1
20260505210040 78 15 3.0 6.0 0.00 0.00 0.00 27 1009.2
20260505205036 78 344 3.0 8.0 0.00 0.00 0.00 28 1009.1
20260505204033 79 328 4.0 7.0 0.00 0.00 0.00 27 1009.2
20260505203030 79 5 3.0 7.0 0.00 0.00 0.00 27 1009.2
20260505202026 79 10 3.0 5.0 0.00 0.00 0.00 29 1009.2
20260505201024 78 325 3.0 8.0 0.00 0.00 0.00 33 1009.2
20260505200019 77 0 3.0 5.0 0.00 0.00 0.00 34 1009.2
20260505195015 76 30 2.0 4.0 0.00 0.00 0.00 33 1009.1
20260505194112 76 5 1.0 4.0 0.00 0.00 0.00 35 1009.2
20260505193109 75 276 3.0 5.0 0.00 0.00 0.00 36 1009.1
20260505192106 74 297 4.0 8.0 0.00 0.00 0.00 39 1009.2
20260505191123 74 266 4.0 8.0 0.00 0.00 0.00 40 1009.2
20260505190059 74 250 3.0 6.0 0.00 0.00 0.00 43 1009.2
20260505185057 73 254 3.0 6.0 0.00 0.00 0.00 46 1009.4
20260505184053 73 275 2.0 6.0 0.00 0.00 0.00 47 1009.5
20260505183050 71 234 3.0 5.0 0.00 0.00 0.00 48 1009.6
20260505182046 70 234 3.0 4.0 0.00 0.00 0.00 46 1009.7
20260505181043 70 280 3.0 5.0 0.00 0.00 0.00 49 1009.9
20260505180040 69 273 3.0 4.0 0.00 0.00 0.00 52 1009.9
20260505175057 68 263 2.0 6.0 0.00 0.00 0.00 50 1009.9
20260505174053 68 281 3.0 5.0 0.00 0.00 0.00 53 1010.0
20260505173030 67 277 3.0 6.0 0.00 0.00 0.00 54 1010.0
20260505172027 66 257 2.0 4.0 0.00 0.00 0.00 55 1010.1
20260505171024 65 238 2.0 4.0 0.00 0.00 0.00 56 1010.0
20260505170020 64 218 3.0 5.0 0.00 0.00 0.00 55 1010.1
20260505165017 64 255 3.0 5.0 0.00 0.00 0.00 56 1010.2
20260505164114 63 270 3.0 5.0 0.00 0.00 0.00 55 1010.2
20260505163111 62 269 4.0 6.0 0.00 0.00 0.00 54 1010.2
20260505162108 62 252 2.0 4.0 0.00 0.00 0.00 55 1010.2
20260505161105 61 259 3.0 5.0 0.00 0.00 0.00 54 1010.2
20260505153052 59 225 0.0 2.0 0.00 0.00 0.00 62 1010.2
20260505152049 58 0.0 2.0 0.00 0.00 0.00 65 1010.1
20260505151045 57 225 0.0 2.0 0.00 0.00 0.00 68 1010.2
20260505125030 37 135 1.0 3.0 0.00 0.00 0.00 85 1009.3
20260505124027 37 135 2.0 3.0 0.00 0.00 0.00 85 1009.1
20260505123023 38 135 1.0 3.0 0.00 0.00 0.00 90 1009.2
20260505122019 38 0.0 1.0 0.00 0.00 0.00 90 1009.0
20260505121016 39 135 0.0 2.0 0.00 0.00 0.00 90 1009.0
20260505120113 38 135 0.0 2.0 0.00 0.00 0.00 89 1008.9
20260505115249 38 135 1.0 3.0 0.00 0.00 0.00 89 1008.7
20260505114106 38 135 1.0 2.0 0.00 0.00 0.00 88 1008.8
20260505113103 38 135 1.0 2.0 0.00 0.00 0.00 87 1008.8
20260505112059 39 135 1.0 2.0 0.00 0.00 0.00 87 1008.8
20260505111056 39 0.0 2.0 0.00 0.00 0.00 87 1008.6
20260505102039 40 135 0.0 2.0 0.00 0.00 0.00 86 1008.3
20260505101036 40 0.0 1.0 0.00 0.00 0.00 85 1008.4
20260505100032 40 0.0 1.0 0.00 0.00 0.00 84 1008.3
20260505095058 40 0.0 1.0 0.00 0.00 0.00 84 1008.4
20260505094055 41 135 0.0 2.0 0.00 0.00 0.00 83 1008.2
20260505093049 41 147 1.0 2.0 0.00 0.00 0.00 82 1008.4
20260505092046 41 90 1.0 2.0 0.00 0.00 0.00 81 1008.4
20260505091042 42 90 1.0 2.0 0.00 0.00 0.00 80 1008.4
20260505090039 42 0.0 1.0 0.00 0.00 0.00 81 1008.4
20260505085054 42 90 2.0 3.0 0.00 0.00 0.00 80 1008.2
20260505084051 43 90 2.0 4.0 0.00 0.00 0.00 78 1008.3
20260505083048 43 104 2.0 4.0 0.00 0.00 0.00 77 1008.4
20260505082024 43 113 0.0 2.0 0.00 0.00 0.00 77 1008.3
20260505081038 44 120 2.0 2.0 0.00 0.00 0.00 75 1008.3
20260505080115 45 109 1.0 3.0 0.00 0.00 0.00 74 1008.3
20260505075131 45 90 1.0 2.0 0.00 0.00 0.00 75 1008.3
20260505074128 45 90 1.0 3.0 0.00 0.00 0.00 74 1008.3
20260505073105 45 90 1.0 5.0 0.00 0.00 0.00 73 1008.2
20260505072101 45 90 1.0 2.0 0.00 0.00 0.00 73 1008.2
20260505071058 46 90 0.0 2.0 0.00 0.00 0.00 72 1008.1
20260505070134 46 90 0.0 2.0 0.00 0.00 0.00 72 1008.1
20260505065051 47 90 0.0 2.0 0.00 0.00 0.00 72 1008.0
20260505064047 47 90 0.0 2.0 0.00 0.00 0.00 71 1008.0
20260505063044 47 135 0.0 2.0 0.00 0.00 0.00 71 1008.0
20260505062040 48 135 0.0 2.0 0.00 0.00 0.00 71 1008.0
20260505061037 47 101 1.0 3.0 0.00 0.00 0.00 71 1007.9
20260505060054 48 140 1.0 4.0 0.00 0.00 0.00 71 1007.8
20260505055029 48 0 1.0 2.0 0.00 0.00 0.00 70 1007.8
20260505054023 48 101 2.0 4.0 0.00 0.00 0.00 68 1007.7
20260505053020 49 89 1.0 2.0 0.00 0.00 0.00 67 1007.7
20260505052016 49 90 1.0 3.0 0.00 0.00 0.00 66 1007.5
20260505051154 51 94 3.0 4.0 0.00 0.00 0.00 63 1007.6
20260505050130 52 32 2.0 4.0 0.00 0.00 0.00 57 1007.6
20260505041053 56 68 0.0 2.0 0.00 0.00 0.00 49 1007.1
20260505040050 58 52 0.0 2.0 0.00 0.00 0.00 46 1006.9
20260505035046 60 0.0 0.0 0.00 0.00 0.00 40 1006.8
20260505034043 61 0.0 0.0 0.00 0.00 0.00 38 1006.8
20260505033040 63 0.0 1.0 0.00 0.00 0.00 35 1006.7
20260505032037 65 45 0.0 2.0 0.00 0.00 0.00 35 1006.4
20260505031034 66 45 1.0 3.0 0.00 0.00 0.00 35 1006.3
20260505030031 66 20 1.0 4.0 0.00 0.00 0.00 33 1006.1
20260505025028 67 5 2.0 5.0 0.00 0.00 0.00 33 1005.9
20260505024045 68 340 2.0 5.0 0.00 0.00 0.00 31 1005.8
20260505023020 69 31 2.0 4.0 0.00 0.00 0.00 30 1005.7
20260505022037 70 0 3.0 8.0 0.00 0.00 0.00 27 1005.7
20260505021114 71 0 2.0 4.0 0.00 0.00 0.00 26 1005.7
20260505020130 72 355 2.0 5.0 0.00 0.00 0.00 25 1005.6
20260505015107 73 343 3.0 8.0 0.00 0.00 0.00 24 1005.6
20260505014103 73 346 3.0 8.0 0.00 0.00 0.00 26 1005.7
20260505013100 74 354 3.0 5.0 0.00 0.00 0.00 26 1005.8
20260505012056 74 0 3.0 5.0 0.00 0.00 0.00 26 1005.7
20260505011053 75 345 3.0 6.0 0.00 0.00 0.00 26 1005.6
20260505010050 75 330 4.0 10.0 0.00 0.00 0.00 27 1005.7
20260505005046 76 348 3.0 7.0 0.00 0.00 0.00 26 1005.7
20260505004042 76 8 3.0 6.0 0.00 0.00 0.00 26 1005.7
20260505003059 76 333 3.0 8.0 0.00 0.00 0.00 26 1005.7
20260505002036 77 341 4.0 11.0 0.00 0.00 0.00 25 1005.7